[[{"header":{"parameterUnit":"m.s-1","parameterCategory":1,"la1":30.2991,"la2":30.254,"lo1":-89.0895,"lo2":-89.0444,"dy":0.0017,"dx":0.0017,"nx":28,"ny":28,"refTime":"2024-02-13T03:00:00:Z","depth":0,"parameterNumber":2,"parameterNumberName":"U-component_of_WINDS"},"data":[0,0,0,0,0,0,0,0,0,0,0,0,0,0,0,0,0,0,0,0,0,0,0,0,0,0,0,0,0,0,0,0,0,0,0,0,0,0,0,0,0,0,0,0,0,0,0,0,0,0,0,0,0,0,0,0,0,0,5.2884,5.2885,0,5.2951,5.2952,5.2952,5.2868,5.2865,5.2862,5.2859,5.2928,5.2933,5.2937,0,0,0,0,0,0,0,0,0,0,0,0,0,5.2686,5.269,5.2884,5.2885,5.2886,5.2951,5.2952,5.2953,5.2869,5.2865,5.2861,5.2858,5.2926,5.2932,5.2938,0,0,0,0,0,0,0,0,0,0,0,0,0,5.2764,5.2691,5.2884,5.2852,5.285,5.2951,5.2952,5.2953,5.287,5.2865,5.2861,5.2856,5.2925,5.2931,5.2938,5.3074,0,0,5.296,5.2963,0,0,0,0,0,0,0,0,5.276,5.2772,5.2856,5.2854,5.2852,5.2897,5.2907,5.2994,5.2871,5.2862,5.2859,5.2854,5.2921,5.2928,5.2951,5.3077,5.308,5.296,5.2965,5.2968,5.297,0,0,0,0,0,0,0,5.2755,5.2768,5.2911,5.2857,5.2855,5.2835,5.2841,5.2923,5.2917,5.2863,5.2857,5.2866,5.2919,5.2944,5.2952,5.3081,5.296,5.2967,5.2971,5.2974,5.3324,5.3329,0,0,0,0,0,0,5.2753,5.2764,5.2908,5.2913,5.2794,5.2842,5.2849,5.2887,5.2916,5.2916,5.287,5.2862,5.2935,5.2944,5.2954,5.3116,5.2968,5.2974,5.2978,5.3319,5.3325,5.333,0,0,0,0,0,0,5.2749,5.2767,5.2906,5.2837,5.2853,5.285,5.2894,5.2891,5.2916,5.2921,5.2919,5.2896,5.2931,5.2944,5.3045,5.3117,5.2977,5.2984,5.3313,5.3321,5.3328,5.3439,0,0,0,0,0,0,5.2744,5.2766,5.2817,5.2839,5.2857,5.2996,5.2898,5.2895,5.2928,5.2918,5.2945,5.2946,5.2929,5.3035,5.3052,5.3124,5.2989,5.3306,5.3316,5.3325,5.3429,5.345,5.3468,0,0,0,0,0,5.2737,5.2845,5.282,5.2837,5.2921,5.3,5.301,5.2989,5.2934,5.2986,5.2989,5.2945,5.3106,5.3046,5.3065,5.314,5.3302,5.3314,5.3325,5.3421,5.3446,5.3467,0,0,0,0,0,0,5.2831,5.2847,5.2819,5.2938,5.2968,5.2986,5.305,5.3016,5.3062,5.3051,5.3022,5.3029,5.3137,5.3148,5.3081,5.3273,5.3195,5.3211,5.3262,5.3286,5.3305,5.3299,5.2995,0,0,0,0,0,5.2866,5.2928,5.2939,5.3043,5.306,5.3053,5.3086,5.3067,5.3097,5.311,5.312,5.3152,5.321,5.3248,5.3302,5.3431,5.3436,5.3492,5.3511,5.3526,5.354,5.3611,5.3636,5.3368,5.3368,5.3368,0,0,5.2938,5.2954,5.2995,5.3062,5.3083,5.315,5.3064,5.3137,5.3186,5.3121,5.3217,5.3227,5.326,5.3376,5.3427,5.3388,5.3616,5.3541,5.3554,5.3559,5.3625,5.365,5.3673,5.3376,5.3374,5.3373,0,0,5.3102,5.3121,5.321,5.3234,5.3267,5.3262,5.3284,5.3307,5.3311,5.3407,5.336,5.3418,5.3518,5.3544,5.3571,5.3748,5.3709,5.3767,5.3866,5.3935,5.3956,5.3975,5.4039,5.4062,5.378,5.3781,5.3781,0,5.3188,5.3285,5.326,5.3337,5.3369,5.3314,5.3404,5.3428,5.3478,5.3501,5.3456,5.3582,5.36,5.3722,5.3766,5.3789,5.3813,5.3763,5.3955,5.3974,5.3991,5.4051,5.4075,5.3787,5.3787,5.3786,5.3785,0,5.3388,5.3457,5.3525,5.3575,5.3614,5.3697,5.3686,5.3728,5.3707,5.3707,5.3806,5.3827,5.3884,5.3912,5.3891,5.4032,5.4007,5.396,5.388,5.4023,5.408,5.4103,5.3797,5.3795,5.3793,5.3791,0,0,5.3613,5.3649,5.3675,5.3697,5.3732,5.3784,5.3866,5.3922,5.396,5.3997,5.4065,5.4152,5.4109,5.4139,5.4121,5.4182,5.4322,5.4127,5.4127,5.4163,5.448,5.4515,5.4542,5.4297,5.4301,5.4305,5.4477,0,5.3778,5.3919,5.39,5.4036,5.41,5.405,5.4121,5.415,5.4153,5.4208,5.4211,5.4273,5.4212,5.423,5.4287,5.4293,5.4385,5.428,5.4361,5.4364,5.4354,5.4571,5.4608,5.477,5.4499,5.4503,5.4505,0,5.3989,5.4035,5.4177,5.4203,5.4229,5.4293,5.4344,5.4397,5.443,5.4428,5.4463,5.4434,5.4517,5.4437,5.4551,5.448,5.4512,5.452,5.4526,5.4532,5.4443,5.4584,5.4821,5.4845,5.454,5.4537,5.4535,0,5.4139,5.4236,5.4334,5.4355,5.4387,5.4434,5.445,5.4478,5.4514,5.4559,5.4582,5.4636,5.4666,5.4708,5.4696,5.4639,5.4813,5.4732,5.4814,5.4815,5.4853,5.485,5.5098,5.4874,5.4874,5.4873,5.4873,0,5.4326,5.4415,5.4402,5.4462,5.4561,5.4539,5.4638,5.4648,5.4674,5.4735,5.4696,5.4754,5.4734,5.4793,5.4783,5.488,5.4894,5.4894,5.4891,5.4898,5.4898,5.4918,5.4907,5.488,5.4878,5.4877,5.4876,0,5.451,5.4504,5.4608,5.4631,5.4639,5.4711,5.4731,5.4788,5.4788,5.4867,5.4884,5.4885,5.4952,5.4944,5.5018,5.5012,5.5132,5.5115,5.5121,5.5117,5.52,5.5193,5.5469,5.5505,5.5258,5.526,5.5262,0,5.4629,5.4696,5.4727,5.4766,5.4785,5.4848,5.4885,5.4867,5.4907,5.495,5.5003,5.5066,5.5115,5.5224,5.5232,5.5289,5.5273,5.5366,5.5281,5.5286,5.5274,5.527,5.5277,5.5382,5.5385,5.5387,5.5389,0,5.4841,5.4836,5.489,5.4944,5.4989,5.5031,5.5069,5.5103,5.5089,5.5136,5.5204,5.5243,5.5319,5.5383,5.5437,5.5454,5.542,5.5416,5.5438,5.5446,5.5447,5.5448,5.5167,5.541,5.5408,5.5406,5.5405,5.5404,5.4996,5.5054,5.5086,5.5148,5.5175,5.5212,5.5267,5.5275,5.5331,5.5392,5.5379,5.5456,5.5488,5.5558,5.5581,5.5641,5.5607,5.5639,5.5647,5.5655,5.5665,5.5438,5.5651,5.565,5.565,5.5649,5.5649,0,5.5206,5.5225,5.5282,5.5337,5.5387,5.5351,5.5392,5.5436,5.5504,5.5537,5.5588,5.5667,5.5729,5.5742,5.5801,5.5847,5.5833,5.5863,5.586,5.5864,5.5692,5.5667,5.5874,5.5874,5.5874,5.5874,5.5874,5.5874,5.5322,5.5419,5.5418,5.5528,5.5546,5.5621,5.5647,5.5682,5.5708,5.5798,5.585,5.5858,5.5884,5.5946,5.6001,5.6004,5.6027,5.6064,5.606,5.5899,5.5876,5.5855,5.5831,5.6069,5.607,5.6228,5.6229,5.623]},{"header":{"parameterUnit":"m.s-1","parameterCategory":1,"la1":30.2991,"la2":30.254,"lo1":-89.0895,"lo2":-89.0444,"dy":0.0017,"dx":0.0017,"nx":28,"ny":28,"refTime":"2024-02-13T03:00:00:Z","depth":0,"parameterNumber":3,"parameterNumberName":"V-component_of_WINDS"},"data":[0,0,0,0,0,0,0,0,0,0,0,0,0,0,0,0,0,0,0,0,0,0,0,0,0,0,0,0,0,0,0,0,0,0,0,0,0,0,0,0,0,0,0,0,0,0,0,0,0,0,0,0,0,0,0,0,0,0,-5.7033,-5.7034,0,-5.7156,-5.7158,-5.7159,-5.711,-5.7107,-5.7104,-5.7101,-5.7231,-5.7237,-5.7243,0,0,0,0,0,0,0,0,0,0,0,0,0,-5.6758,-5.6763,-5.7033,-5.7034,-5.7036,-5.7156,-5.7158,-5.716,-5.7111,-5.7107,-5.7103,-5.71,-5.7229,-5.7237,-5.7244,0,0,0,0,0,0,0,0,0,0,0,0,0,-5.6879,-5.6765,-5.7032,-5.7026,-5.7026,-5.7156,-5.7158,-5.716,-5.7111,-5.7107,-5.7103,-5.7098,-5.7227,-5.7236,-5.7245,-5.7389,0,0,-5.7273,-5.7277,0,0,0,0,0,0,0,0,-5.6872,-5.6889,-5.7025,-5.7026,-5.7027,-5.7113,-5.7109,-5.7237,-5.7112,-5.7079,-5.7101,-5.7096,-5.7196,-5.7207,-5.724,-5.7396,-5.7401,-5.7274,-5.728,-5.7284,-5.7286,0,0,0,0,0,0,0,-5.6864,-5.6884,-5.7082,-5.7027,-5.7029,-5.7018,-5.703,-5.7133,-5.7161,-5.7082,-5.7078,-5.7094,-5.7196,-5.7231,-5.7243,-5.7403,-5.7274,-5.7282,-5.7288,-5.7291,-5.7685,-5.7689,0,0,0,0,0,0,-5.6855,-5.6877,-5.7078,-5.7085,-5.6937,-5.7026,-5.704,-5.709,-5.7159,-5.7166,-5.7097,-5.7091,-5.7218,-5.7232,-5.7247,-5.7422,-5.7284,-5.7292,-5.7298,-5.768,-5.7686,-5.7691,0,0,0,0,0,0,-5.6849,-5.6873,-5.7073,-5.698,-5.7005,-5.7036,-5.7092,-5.7095,-5.7131,-5.7171,-5.7176,-5.7128,-5.7215,-5.7234,-5.7355,-5.7425,-5.7296,-5.7305,-5.7674,-5.7682,-5.7688,-5.7771,0,0,0,0,0,0,-5.6841,-5.6871,-5.6925,-5.6982,-5.701,-5.7177,-5.7097,-5.71,-5.7146,-5.7139,-5.7202,-5.7208,-5.7213,-5.7341,-5.7364,-5.7436,-5.7312,-5.7668,-5.7678,-5.7686,-5.7762,-5.778,-5.7796,0,0,0,0,0,-5.6832,-5.6944,-5.6928,-5.6953,-5.7078,-5.7181,-5.7197,-5.72,-5.7152,-5.7208,-5.7234,-5.7206,-5.7414,-5.7354,-5.7379,-5.7455,-5.7663,-5.7675,-5.7685,-5.7755,-5.7777,-5.7796,0,0,0,0,0,0,-5.6896,-5.6951,-5.6934,-5.7068,-5.712,-5.7173,-5.7242,-5.7223,-5.7291,-5.7281,-5.7283,-5.7298,-5.7422,-5.7451,-5.7382,-5.7599,-5.7532,-5.7548,-5.7576,-5.7597,-5.7614,-5.7604,-5.732,0,0,0,0,0,-5.6926,-5.7003,-5.7048,-5.7162,-5.7189,-5.7212,-5.7256,-5.7254,-5.7308,-5.733,-5.7365,-5.742,-5.7498,-5.7549,-5.7623,-5.7766,-5.778,-5.7831,-5.7848,-5.7862,-5.7876,-5.7955,-5.7979,-5.7727,-5.7727,-5.7727,0,0,-5.6988,-5.7028,-5.7077,-5.7176,-5.7216,-5.7298,-5.723,-5.7319,-5.7381,-5.7344,-5.746,-5.7488,-5.7549,-5.7682,-5.7742,-5.771,-5.7949,-5.7876,-5.7886,-5.7893,-5.7969,-5.7993,-5.8014,-5.7735,-5.7733,-5.7732,0,0,-5.7143,-5.7181,-5.728,-5.7322,-5.7383,-5.7397,-5.7421,-5.7477,-5.7494,-5.761,-5.7585,-5.7658,-5.7792,-5.7837,-5.7877,-5.8052,-5.8029,-5.8076,-5.8164,-5.8241,-5.8261,-5.8279,-5.8342,-5.8364,-5.809,-5.809,-5.809,0,-5.7213,-5.7334,-5.7334,-5.7425,-5.747,-5.7441,-5.7543,-5.7583,-5.7666,-5.7699,-5.7661,-5.7829,-5.7868,-5.8011,-5.8054,-5.8088,-5.8116,-5.8068,-5.8258,-5.8276,-5.8292,-5.8352,-5.8376,-5.8096,-5.8095,-5.8094,-5.8094,0,-5.7417,-5.7502,-5.7575,-5.7655,-5.7708,-5.7805,-5.7821,-5.7875,-5.7869,-5.7888,-5.8007,-5.8053,-5.8136,-5.817,-5.8165,-5.8314,-5.8292,-5.8256,-5.8189,-5.8321,-5.8378,-5.8401,-5.8103,-5.8101,-5.81,-5.8098,0,0,-5.7615,-5.7695,-5.7722,-5.7758,-5.7824,-5.789,-5.7986,-5.8067,-5.8114,-5.8172,-5.8254,-5.8368,-5.8336,-5.8382,-5.8382,-5.845,-5.8586,-5.8406,-5.8408,-5.8438,-5.8754,-5.878,-5.8807,-5.8571,-5.8576,-5.8579,-5.8749,0,-5.7776,-5.7942,-5.7946,-5.8099,-5.8178,-5.8152,-5.8236,-5.8286,-5.8307,-5.8378,-5.8402,-5.8483,-5.8434,-5.8462,-5.8528,-5.8555,-5.8649,-5.8543,-5.8648,-5.8652,-5.8633,-5.8836,-5.8864,-5.9022,-5.8771,-5.8775,-5.8777,0,-5.7985,-5.805,-5.8211,-5.8266,-5.83,-5.8375,-5.8449,-5.8517,-5.8575,-5.8586,-5.8638,-5.8628,-5.8727,-5.8657,-5.8795,-5.8722,-5.8766,-5.8786,-5.8792,-5.8802,-5.8722,-5.8852,-5.9072,-5.9096,-5.8812,-5.8809,-5.8807,0,-5.8114,-5.8241,-5.8354,-5.8386,-5.8454,-5.8508,-5.8539,-5.8592,-5.8641,-5.8707,-5.8739,-5.8816,-5.8858,-5.8919,-5.8931,-5.8878,-5.907,-5.9,-5.9082,-5.9082,-5.9123,-5.912,-5.9354,-5.9151,-5.9151,-5.915,-5.915,0,-5.8293,-5.8392,-5.8413,-5.8483,-5.8594,-5.8599,-5.8709,-5.8736,-5.8784,-5.886,-5.8843,-5.8914,-5.8925,-5.9,-5.9011,-5.9124,-5.9143,-5.9155,-5.9157,-5.9157,-5.9156,-5.9185,-5.9175,-5.9157,-5.9155,-5.9154,-5.9153,0,-5.8455,-5.8473,-5.8595,-5.8649,-5.8665,-5.8745,-5.8793,-5.886,-5.8879,-5.8975,-5.8998,-5.9029,-5.9116,-5.9134,-5.9238,-5.9245,-5.938,-5.937,-5.936,-5.9359,-5.9441,-5.9433,-5.9701,-5.9737,-5.9511,-5.9513,-5.9515,0,-5.8568,-5.8644,-5.8707,-5.8756,-5.8789,-5.8868,-5.8918,-5.8926,-5.8978,-5.905,-5.911,-5.9195,-5.9263,-5.9404,-5.9437,-5.9516,-5.9509,-5.9598,-5.9521,-5.9519,-5.9511,-5.9506,-5.9514,-5.9612,-5.9615,-5.9617,-5.9618,0,-5.8767,-5.8772,-5.8843,-5.8919,-5.8979,-5.9039,-5.9096,-5.9137,-5.9153,-5.9213,-5.9302,-5.9355,-5.9461,-5.9546,-5.9626,-5.9659,-5.9643,-5.9642,-5.9666,-5.9666,-5.9658,-5.9664,-5.94,-5.9636,-5.9634,-5.9633,-5.9632,-5.9631,-5.8908,-5.8975,-5.903,-5.911,-5.9154,-5.9208,-5.9274,-5.9302,-5.9376,-5.9462,-5.9462,-5.956,-5.9617,-5.9722,-5.9761,-5.9838,-5.981,-5.9844,-5.9853,-5.9861,-5.9869,-5.9645,-5.9853,-5.9852,-5.9852,-5.9851,-5.9851,0,-5.9106,-5.914,-5.9215,-5.9295,-5.9359,-5.9337,-5.9399,-5.9454,-5.954,-5.9594,-5.9662,-5.9765,-5.9848,-5.9887,-5.997,-6.0024,-6.0019,-6.0046,-6.0042,-6.005,-5.9888,-5.986,-6.0049,-6.0049,-6.0049,-6.0049,-6.0049,-6.0049,-5.9217,-5.9329,-5.9341,-5.9475,-5.9509,-5.9603,-5.9641,-5.9692,-5.9735,-5.985,-5.9919,-5.9944,-5.9993,-6.0079,-6.0155,-6.0164,-6.0196,-6.0227,-6.0233,-6.0081,-6.0061,-6.0042,-6.0015,-6.0234,-6.0234,-6.0388,-6.0389,-6.0391]}]]